Погода в Гооре

Россия / Республика Дагестан     42°25′57″N   46°34′12″E
темп.,
°C
ветер,
м/с
пор.,
м/с
влажн.,
%
обл.,
%
осадки,
мм/ч
давл.,
гПа
погр.,
м
23 апреля, пт
пт2300:00+6в129353 0.2 1017177
03:00+5ссз219560 0.3 1017170
06:00+4ссз339698 0.3 1019453
09:00+3сз459597 0.6 1021362
12:00+3сз459297 1.0 1022411
15:00+6ссз336960 1.2 1021811
18:00+6св216635 0.0 1022575
21:00+3ююв128116 0.0 102322
24 апреля, сб
сб2400:00+2юз22580 0.0 102225
03:00+2ююз336829 0.0 102041
06:00+3юз338040 0.0 101998
09:00+10зюз125010 0.0 1016969
12:00+14св253820 0.0 10131715
15:00+14св334427 0.0 10131218
18:00+9ссв327388 0.1 1017569
21:00+7в228182 0.1 1019383
25 апреля, вс
вс2500:00+6всв228952 0.0 1020219
03:00+4вюв1189100 0.0 102018
06:00+5ююв117912 0.0 101957
09:00+11всв3258100 0.0 1016676
12:00+13всв335898 0.0 1015913
15:00+14всв335191 0.0 1013963
18:00+11в236757 0.0 1013221
21:00+9ююз3373100 0.0 101542
26 апреля, пн
пн2600:00+7ююз4477100 0.0 101489
03:00+7ююз447899 0.0 101284
06:00+8ююз4474100 0.0 101292
09:00+16ююз1843100 0.0 10091464
12:00+19ююз2113178 0.0 10062821
15:00+19юз393185 0.0 10062392
18:00+13вюв126295 0.0 1008211
21:00+10ююз227097 0.0 101020
27 апреля, вт
вт2700:00+7с229284 0.0 1012103
03:00+6ююз029394 3.8 1014210
06:00+7сз1190100 0.5 1013102
09:00+10всв227793 1.9 1012636
12:00+10св3282100 0.4 1013545
15:00+7св2194100 3.6 1014269
18:00+5св2297100 0.3 1016264
21:00+5всв1198100 0.4 1017259